RH
13 12 12 12 11 11 10 10 9 9 9 9 10 10 9 10 9 9 9 8 7 9 10 11 11 11 11 11 12 16 13 9 9 10 11 13 20 26 26 25 28 32 30 29 35 39 38 36 34 37 40 44 47 48 45 40 33 25 19 20 22 25 33 62 100 80 58 69 53 69 99 95 101 88 67 63 62 55 47 53 60 70 72 68 71 64 69 72
13 14 13 13 13 12 11 11 10 10 9 9 9 9 10 9 9 9 9 8 8 8 9 10 11 11 11 11 11 15 14 10 9 10 11 12 20 27 26 25 29 33 30 30 37 42 43 42 41 39 40 44 45 48 46 42 36 27 21 20 30 32 25 57 101 82 68 87 72 82 105 97 103 90 65 60 54 49 47 52 59 70 72 65 67 64 68 68
12 13 13 13 14 13 13 12 11 10 10 9 9 9 9 10 9 9 9 9 9 7 8 10 11 11 11 11 11 13 15 11 9 10 11 11 18 26 27 27 30 34 31 32 38 43 44 42 43 39 37 40 41 45 45 44 39 30 23 20 34 37 28 56 101 97 70 74 86 97 103 99 100 88 81 76 50 44 49 50 58 72 74 64 60 57 55 51
11 11 11 12 13 13 14 14 13 12 10 10 9 9 9 10 9 9 9 9 9 8 8 9 10 11 11 12 11 12 14 13 10 10 11 11 16 24 28 29 30 34 33 32 36 39 41 39 40 39 35 36 38 42 42 44 40 32 24 19 29 34 34 58 95 106 79 69 91 101 98 93 92 89 99 92 51 42 53 52 62 75 75 67 59 49 37 33
11 11 11 11 11 12 13 13 14 14 13 11 9 10 9 9 9 9 9 9 9 9 8 8 9 11 11 12 11 11 13 15 13 10 11 11 13 21 27 30 30 32 34 32 33 35 39 40 40 40 37 36 37 40 40 41 40 34 27 20 24 29 37 60 87 97 86 87 96 89 82 80 86 97 105 85 47 49 60 57 67 74 72 67 62 57 37 25
13 12 12 12 12 11 11 12 13 14 14 13 11 10 9 9 9 9 9 9 9 9 9 8 8 10 10 11 11 11 12 15 15 10 10 11 11 17 24 29 31 31 33 32 30 33 37 39 39 39 38 37 37 38 38 38 39 35 29 22 21 24 35 59 81 84 83 95 101 85 70 70 85 101 98 69 52 63 59 54 66 70 70 65 62 69 51 25
13 12 12 12 11 11 11 11 11 12 13 14 14 11 9 9 10 9 9 9 9 9 9 8 8 9 10 10 11 11 11 14 15 12 10 11 10 14 21 27 30 30 31 32 30 31 35 37 38 38 38 38 38 37 37 36 37 35 31 25 20 21 29 51 74 79 79 90 100 96 84 77 79 91 91 64 54 59 49 51 63 64 71 70 62 64 54 31
13 12 11 11 10 10 10 10 10 11 11 13 14 14 11 9 9 9 9 9 9 9 9 9 8 8 10 10 11 11 11 12 15 14 10 11 11 11 16 23 28 30 30 30 30 31 32 34 36 38 38 39 38 37 36 34 35 34 32 28 22 20 21 37 61 72 76 81 88 94 97 93 77 80 90 68 52 51 46 50 55 63 75 77 66 50 42 31
16 14 14 12 11 10 10 9 9 10 10 11 12 13 13 11 9 9 10 9 9 9 9 9 9 8 9 10 11 10 11 11 13 16 13 10 11 11 13 18 24 28 29 29 30 31 31 32 34 36 37 38 38 36 35 34 34 33 32 29 24 21 19 24 39 54 63 69 74 80 91 100 92 87 88 72 58 53 52 52 58 72 80 85 74 42 30 27
18 17 16 15 14 12 11 11 10 10 9 10 10 11 13 12 11 9 9 10 9 9 9 9 9 9 8 9 11 10 10 11 12 15 16 12 10 11 11 14 20 25 28 29 28 30 30 31 32 34 35 36 37 36 35 33 32 31 31 30 26 22 20 19 24 33 41 48 55 60 66 82 96 99 93 86 75 66 66 68 76 87 85 90 76 40 27 24
18 17 17 16 16 15 13 13 12 12 11 10 10 10 11 12 12 10 8 10 10 9 9 9 9 9 9 8 10 11 11 10 11 13 17 15 11 11 11 11 15 20 25 27 28 30 31 32 32 33 35 35 35 35 34 33 31 30 30 30 28 24 21 19 20 22 27 32 34 37 40 48 68 83 88 95 93 85 86 84 88 90 84 85 68 38 28 23
17 17 17 16 16 15 15 14 14 13 12 11 10 10 11 11 12 12 10 9 10 10 9 9 9 9 9 9 9 10 11 10 11 11 15 18 14 11 11 11 12 16 21 25 27 29 31 33 32 32 34 35 34 34 33 32 31 30 30 30 29 27 24 21 19 19 21 23 25 27 27 26 33 45 56 68 75 77 78 74 72 71 69 69 52 32 25 22
17 15 15 16 15 16 15 16 16 14 13 12 11 11 11 11 11 12 12 10 10 10 10 9 10 10 10 9 9 9 10 10 10 11 12 16 17 13 11 12 11 12 16 21 25 28 31 33 33 33 34 34 33 33 32 31 31 30 30 29 29 28 26 24 21 21 19 19 22 20 28 39 34 29 31 34 38 43 45 43 43 44 47 46 34 24 22 21
17 15 15 15 14 15 15 16 17 15 14 13 13 12 12 12 11 12 12 11 10 10 10 10 9 10 10 10 10 9 10 11 10 11 11 13 17 17 13 12 12 12 12 17 21 25 29 31 33 33 33 33 33 32 31 31 31 31 30 29 29 29 28 27 24 23 21 20 20 18 40 62 49 34 30 26 24 25 25 26 28 29 30 28 23 20 20 20
19 16 15 15 15 15 16 17 17 15 15 15 14 14 13 13 13 13 13 13 12 10 10 11 10 10 10 11 10 9 9 10 11 11 12 11 14 18 17 14 12 12 11 13 17 21 25 28 31 33 34 34 32 31 30 31 32 31 31 31 31 31 29 28 27 26 23 21 20 19 37 48 35 33 37 31 28 24 23 24 25 24 23 22 20 20 20 20
22 18 16 16 16 16 17 17 17 16 16 16 16 16 16 16 16 17 15 14 13 12 11 11 11 10 10 11 10 10 9 10 11 11 12 12 12 15 20 18 14 13 12 12 13 16 21 24 28 31 34 35 33 31 29 29 31 30 31 31 32 32 31 30 29 28 25 24 23 20 31 36 24 29 34 28 28 27 25 25 24 23 21 21 20 19 20 19
22 19 18 18 19 19 19 19 17 17 17 17 18 17 18 19 19 20 20 18 16 14 13 11 12 11 10 11 10 11 10 10 11 11 12 12 12 12 16 20 17 14 13 13 12 13 17 20 24 28 31 35 34 32 29 28 29 30 31 31 32 33 32 33 31 30 28 26 26 21 31 39 29 27 32 28 27 27 27 24 23 24 22 21 20 19 20 19
22 19 17 18 21 22 22 21 20 20 20 19 19 19 21 22 22 23 24 23 20 17 15 12 12 12 11 11 11 11 11 12 11 11 12 12 13 12 13 18 20 17 14 14 14 12 14 16 20 23 27 31 33 33 30 28 28 29 30 30 31 33 33 33 32 32 31 28 29 23 25 31 27 26 29 28 27 26 27 25 24 24 22 21 21 20 19 19
21 18 17 17 20 22 23 23 23 22 22 22 22 21 21 22 24 26 27 26 24 22 19 16 13 12 12 11 11 11 12 13 12 11 11 12 13 13 12 13 18 21 17 16 17 15 13 14 16 20 23 26 30 32 30 28 27 28 29 29 30 32 33 33 33 34 33 31 31 28 27 26 26 30 28 25 26 25 24 25 24 24 23 22 21 20 19 19
21 18 17 18 19 21 22 22 23 23 23 23 23 23 22 21 22 24 27 28 27 24 21 19 16 12 12 13 12 11 12 13 13 11 11 12 13 13 13 12 14 19 20 19 19 18 15 13 14 17 19 23 26 28 29 29 26 26 28 28 28 31 32 33 33 34 34 34 33 31 31 28 29 39 36 25 24 25 24 24 24 24 23 22 21 20 18 18
22 19 18 19 20 21 21 22 22 22 22 22 22 22 22 21 21 21 23 26 28 26 23 21 18 15 13 13 13 12 12 12 13 13 12 12 13 13 14 13 12 14 20 22 22 20 17 15 14 15 16 19 22 24 27 28 25 24 26 27 28 29 31 32 32 33 34 34 35 33 32 31 30 35 34 26 25 26 25 24 23 23 23 22 22 22 19 18
23 21 21 21 22 23 24 24 23 22 21 20 20 20 20 20 20 19 19 22 25 26 26 22 19 18 16 14 13 13 13 12 13 14 13 12 13 14 14 14 13 12 15 21 24 22 21 22 18 15 15 16 19 21 24 25 24 24 26 27 28 29 31 31 30 32 33 32 34 33 33 34 33 33 32 29 30 27 25 25 23 23 21 19 24 24 19 19
25 24 24 25 27 27 27 26 23 20 18 16 16 16 17 17 17 17 17 18 20 23 25 23 20 19 19 17 14 13 14 13 13 13 14 14 13 14 14 14 14 13 12 16 22 25 26 27 23 18 16 15 16 18 21 23 24 24 25 26 27 29 30 29 28 30 31 32 32 33 33 33 35 35 32 31 31 29 29 26 21 22 19 21 35 33 21 21
27 27 28 30 31 30 28 25 21 17 14 12 12 12 12 14 14 15 16 16 16 18 22 22 21 20 21 19 16 14 14 14 13 13 13 14 14 14 15 14 14 14 13 12 16 23 28 28 26 22 18 15 15 16 18 21 22 23 24 25 26 29 30 29 30 30 31 31 31 32 32 32 33 32 31 32 32 31 30 25 22 24 20 24 38 34 22 23
30 32 34 34 33 30 26 21 17 14 12 10 9 9 9 10 11 13 14 15 15 15 17 19 21 21 21 21 19 15 13 14 14 14 13 14 15 15 14 14 15 15 15 13 12 16 23 29 29 25 20 18 17 15 16 17 19 21 22 23 25 28 30 30 29 29 29 30 31 31 31 31 31 30 32 34 31 28 28 26 25 27 23 23 26 23 21 23
34 36 37 37 34 29 22 16 13 11 10 9 8 8 8 8 9 10 12 14 15 15 15 16 19 21 19 20 20 17 15 15 15 15 14 13 14 15 15 15 15 15 15 15 13 12 16 25 29 25 22 22 21 17 15 15 17 19 20 21 24 26 28 29 28 28 28 29 29 31 31 31 30 30 34 35 32 29 28 28 28 26 26 25 23 23 23 24
37 39 39 37 33 26 18 14 11 10 8 8 7 7 7 7 8 9 10 12 13 15 16 16 17 19 18 18 19 20 18 15 15 16 15 14 14 14 15 16 16 17 16 16 15 13 12 17 24 27 26 27 27 24 19 16 15 16 18 19 21 24 25 26 27 25 26 28 28 29 29 30 30 29 31 33 32 31 28 28 28 25 25 25 24 24 24 24
42 42 40 36 30 22 16 13 10 9 7 7 7 7 7 7 7 8 9 11 12 13 16 17 17 17 18 18 18 19 18 16 16 16 16 16 15 14 15 16 16 17 18 17 16 15 13 13 17 24 28 31 32 30 26 22 18 16 16 17 17 20 23 24 25 24 24 26 27 28 27 29 30 28 29 29 29 30 29 27 25 25 26 25 25 24 24 24
46 44 39 35 28 19 15 13 10 8 8 7 7 7 7 7 7 8 8 9 11 12 14 16 17 17 17 17 17 17 18 20 19 17 17 17 16 15 14 15 17 17 18 18 16 15 15 13 12 16 24 31 33 31 30 28 24 21 19 16 15 18 20 21 22 22 22 24 25 25 26 26 27 27 28 28 28 28 28 26 24 24 25 24 24 24 23 23
48 45 39 34 26 18 15 13 10 9 8 8 8 8 8 8 8 8 8 8 10 12 14 15 17 18 18 18 18 18 19 21 21 20 20 19 18 17 15 15 16 17 19 18 17 16 16 14 12 12 16 25 33 32 30 30 30 28 24 19 16 16 18 20 20 20 20 22 23 23 23 24 25 25 26 26 27 27 26 24 24 25 25 23 24 23 22 22
52 47 40 33 25 18 16 14 10 9 9 9 9 8 8 8 8 8 8 8 9 11 13 15 16 18 19 20 19 19 20 21 22 23 22 20 20 18 16 16 15 16 18 18 18 19 18 16 14 12 12 17 28 35 35 33 35 34 29 23 19 16 16 18 19 18 18 19 20 20 21 21 22 23 23 24 24 24 24 23 23 23 23 23 23 22 21 21
57 50 41 33 25 19 17 14 11 10 10 10 10 9 8 8 8 8 8 9 9 10 12 14 16 17 19 21 22 22 22 23 25 27 26 24 23 21 19 18 16 16 17 17 18 20 19 16 15 14 13 12 19 29 36 38 38 38 34 29 24 19 17 18 19 20 19 19 19 19 19 19 20 20 21 22 22 22 22 21 22 21 21 21 21 21 20 19
60 52 42 33 26 21 19 15 11 11 11 11 10 9 9 9 8 8 8 9 9 9 10 12 15 17 18 21 23 24 24 25 29 33 33 30 26 23 21 20 19 18 17 16 17 19 19 17 16 16 15 13 13 18 29 39 42 40 39 38 33 26 22 22 25 25 22 21 21 21 20 18 19 19 19 19 19 20 19 19 19 19 19 19 18 19 18 17
62 52 42 34 27 23 21 16 12 12 12 11 11 10 10 10 9 9 9 9 9 10 10 11 13 16 19 20 22 25 26 26 29 34 38 38 33 27 24 23 21 19 18 17 17 18 19 18 17 17 16 15 13 13 18 29 41 45 42 42 41 36 32 30 33 34 31 30 31 30 25 20 20 19 18 18 17 17 17 16 17 16 17 17 16 17 16 16
64 53 43 36 29 25 24 17 12 12 12 12 12 11 11 11 10 10 9 9 10 10 10 11 12 14 18 20 21 24 27 27 28 31 37 41 40 34 30 27 24 21 20 19 17 16 17 17 17 18 18 18 16 14 13 18 32 41 43 44 44 42 41 38 37 38 37 37 40 38 30 25 25 24 21 19 18 17 16 15 15 14 15 14 14 15 14 14
66 53 43 37 31 27 26 19 13 13 13 13 13 12 12 12 11 11 10 10 10 10 11 11 12 13 16 19 21 22 26 28 28 30 33 38 42 40 36 32 29 25 22 20 17 16 16 16 17 19 20 20 18 16 14 13 18 27 38 46 45 43 45 44 44 45 43 41 40 38 36 34 33 33 29 23 19 17 15 14 14 13 13 13 13 14 13 13
67 53 44 39 34 30 28 21 15 14 14 14 13 12 13 13 13 12 11 11 11 10 11 12 12 13 14 17 20 22 25 27 29 29 30 33 40 42 40 37 33 29 25 22 19 18 16 15 16 18 19 21 20 17 16 14 12 16 26 40 48 49 49 49 53 54 50 46 41 36 37 37 34 35 34 28 23 20 16 15 14 12 12 12 12 12 11 12
68 54 45 42 37 33 32 24 17 15 15 15 15 14 14 14 14 14 13 13 12 11 12 13 13 13 13 15 18 20 23 27 29 30 30 30 34 38 41 42 38 32 27 24 21 19 18 16 16 17 18 20 20 19 17 15 13 12 15 25 41 51 52 52 54 57 57 54 46 39 37 37 33 34 34 31 27 24 20 17 15 13 12 12 12 12 11 11
69 54 47 44 39 37 36 27 19 17 17 15 15 15 15 16 16 15 15 14 13 13 13 13 13 14 14 14 16 18 21 24 27 30 32 32 31 33 37 41 41 37 31 27 25 22 19 19 16 15 17 18 19 19 18 17 15 14 12 14 25 38 47 52 53 56 61 59 53 51 49 44 38 37 38 35 30 27 23 21 18 15 13 12 12 12 12 12
69 54 49 46 41 40 40 31 21 18 18 17 16 16 16 18 18 17 17 16 15 15 14 14 14 14 15 14 15 17 19 21 24 26 30 32 32 33 34 36 39 38 34 30 29 25 21 20 18 16 16 16 17 18 18 19 17 15 13 12 14 21 32 45 52 58 61 55 53 56 54 51 50 51 51 46 39 34 30 25 22 17 14 13 13 12 12 12
68 55 52 48 42 42 41 35 25 19 19 18 17 18 17 19 20 20 19 18 17 17 16 16 16 16 16 15 15 15 17 20 21 23 26 28 30 33 33 34 35 36 35 35 33 29 25 22 19 17 16 15 16 17 18 20 19 17 16 13 13 13 19 33 48 60 63 54 55 60 55 55 61 63 64 61 55 49 43 38 33 25 19 16 14 14 13 13
68 57 54 49 43 43 43 39 29 22 20 18 18 19 19 19 21 22 22 20 19 19 17 17 18 18 18 17 16 15 15 17 20 21 23 25 27 29 31 32 33 33 35 37 35 31 27 24 21 19 17 15 15 15 17 19 19 18 17 16 15 13 13 22 34 50 58 52 55 63 62 65 69 69 71 70 65 61 56 53 48 38 29 23 19 17 15 14
68 58 56 50 45 44 44 42 33 25 24 21 18 19 20 20 21 22 24 23 21 20 20 19 19 18 19 19 18 17 15 15 17 19 21 22 24 26 27 29 31 31 32 35 35 33 29 26 23 20 19 17 15 15 15 17 18 18 18 17 17 15 13 15 19 32 46 50 56 62 62 68 74 74 76 75 69 65 60 57 54 46 36 29 24 21 18 16
70 62 58 52 47 45 46 45 36 28 27 25 20 19 20 22 22 23 24 25 24 23 22 21 21 20 20 19 20 20 19 17 16 17 19 21 21 22 24 26 28 30 30 30 32 34 33 30 24 22 21 18 17 16 14 15 16 17 18 18 18 16 15 15 13 18 28 38 51 58 58 65 75 78 80 79 74 70 64 59 55 47 40 34 29 25 22 20
73 67 62 55 50 48 47 46 40 31 28 28 25 21 21 21 23 24 25 26 26 26 25 23 22 22 21 20 20 20 20 20 19 17 17 19 20 21 22 23 24 26 28 28 28 30 33 33 29 26 24 21 19 17 15 15 15 16 18 18 18 18 17 16 15 15 17 22 34 43 47 61 77 84 87 85 81 77 73 69 63 53 46 39 34 29 25 23
76 72 67 58 53 51 48 47 45 36 29 29 28 25 23 22 23 24 26 27 27 27 27 26 24 23 23 22 21 21 20 21 20 19 18 18 19 20 21 22 21 22 23 25 25 26 28 31 32 30 27 24 21 19 17 16 15 16 17 17 18 19 18 18 16 15 15 15 19 25 32 47 65 76 84 87 86 83 79 76 74 66 57 49 43 36 29 26
81 79 73 65 58 54 50 49 48 41 33 31 31 28 26 25 24 24 25 27 29 28 28 28 27 26 25 24 23 22 22 21 20 20 20 19 19 19 20 22 22 21 21 21 22 23 24 26 28 29 29 27 25 23 22 19 17 16 16 16 17 18 19 19 18 16 16 15 15 17 22 32 43 54 68 78 82 84 82 79 77 72 66 59 54 47 38 30
87 85 80 74 66 59 53 50 50 45 36 34 34 33 30 28 27 27 26 27 29 30 30 29 29 28 27 26 25 24 24 23 22 21 21 21 20 19 19 20 22 22 21 21 20 20 21 22 24 25 27 28 28 26 24 22 20 18 17 17 16 17 18 19 19 18 18 16 15 15 16 21 28 38 51 63 74 82 85 82 79 75 69 64 60 57 51 40
94 91 86 82 74 63 55 52 52 49 41 35 35 36 35 33 31 30 29 28 28 29 31 31 30 29 28 28 28 27 26 24 24 23 22 22 22 21 20 20 21 21 22 22 21 20 19 19 20 22 23 25 27 27 26 24 22 20 20 19 17 16 17 18 19 19 19 18 18 17 16 15 19 25 34 45 58 71 80 85 86 83 79 73 66 62 60 50
100 95 90 89 79 66 57 54 53 52 46 38 35 38 40 39 36 34 33 32 29 28 29 31 31 31 30 29 29 29 28 27 26 25 25 24 24 24 23 22 22 22 22 23 23 22 21 19 19 19 20 22 24 25 26 25 23 22 22 21 19 17 16 17 18 19 19 19 19 18 16 15 16 18 21 28 37 48 60 73 82 86 85 83 79 73 69 60
103 96 93 92 83 68 59 56 55 54 51 43 38 39 42 43 42 39 37 36 34 32 30 29 31 32 32 31 30 30 30 30 30 28 27 27 26 26 26 26 25 25 24 23 23 23 22 21 20 18 18 19 20 22 24 24 23 23 22 23 21 19 17 16 17 18 19 20 20 19 18 16 15 16 16 19 23 29 37 47 60 71 76 79 82 82 79 70
105 98 97 96 87 71 60 58 57 56 54 48 42 41 43 45 47 45 41 39 38 37 34 31 30 30 32 32 32 31 31 31 32 31 31 31 30 29 29 28 28 28 27 26 24 24 23 22 22 20 18 17 17 19 21 22 23 22 22 23 22 20 19 17 16 17 18 20 20 19 19 18 17 17 16 17 18 20 24 30 39 49 55 61 69 75 78 75
Wind_Speed
26 27 29 30 32 33 34 36 37 38 38 39 40 40 40 40 40 40 40 39 39 39 37 36 36 35 34 33 34 32 32 39 49 56 59 59 58 57 56 54 53 51 51 51 50 50 50 48 46 44 43 41 39 36 34 32 31 29 28 27 26 26 25 24 24 24 23 20 18 16 15 13 11 13 15 14 14 12 9 5 4 6 8 9 10 12 16 21
24 25 26 28 30 31 33 35 36 37 38 39 40 41 42 42 42 42 42 41 41 41 40 39 38 38 37 35 36 35 34 38 47 56 59 60 59 59 57 56 54 53 52 52 52 51 51 50 48 47 45 43 41 39 36 34 32 31 30 28 27 27 27 27 27 27 25 22 21 19 19 13 8 11 14 14 13 11 7 5 5 6 8 10 11 13 15 19
25 25 25 26 27 28 31 33 36 37 38 39 41 41 42 43 44 43 43 43 43 43 43 42 40 40 39 38 38 38 37 38 45 54 60 60 60 60 59 57 56 55 54 54 54 54 53 53 51 49 48 46 43 41 38 36 34 32 31 30 28 28 28 29 29 28 26 24 22 21 20 16 11 11 11 12 13 8 6 6 5 5 6 9 12 13 15 17
29 29 29 28 28 28 28 30 33 37 39 39 40 42 43 44 45 45 45 45 45 45 45 45 43 42 42 41 40 40 40 39 44 53 59 61 61 61 60 59 58 57 56 56 56 55 55 54 52 50 49 47 45 42 39 37 36 34 33 32 31 30 29 30 31 28 27 25 24 24 23 20 17 13 12 14 13 10 8 6 5 6 5 6 10 13 14 17
34 34 34 34 33 32 31 30 30 33 37 40 41 42 43 45 46 47 48 47 47 47 47 47 46 45 44 44 43 42 42 41 44 51 58 62 63 62 62 61 60 59 58 57 57 56 55 55 53 52 50 48 46 43 41 39 38 37 36 35 33 32 30 30 32 30 28 27 25 27 26 24 20 14 15 16 13 12 11 8 7 7 6 7 9 12 14 16
38 39 39 39 38 37 36 35 34 32 34 38 42 44 44 45 47 48 49 50 49 49 49 49 49 48 47 46 46 45 44 45 46 51 57 62 64 64 63 63 62 61 60 59 58 57 57 56 54 53 51 49 47 46 44 43 42 40 39 38 36 33 32 31 32 31 30 28 24 25 27 25 23 20 20 19 15 15 14 12 11 9 9 9 9 11 14 15
42 42 43 43 43 42 41 41 40 38 36 36 39 44 46 46 47 49 50 51 52 51 51 51 51 51 50 49 48 47 47 48 48 50 56 62 64 65 65 64 63 62 62 61 59 58 57 57 55 54 52 51 50 48 47 46 44 43 42 40 38 36 33 32 33 32 31 30 25 23 25 26 26 24 23 21 18 18 16 15 15 13 12 12 11 11 13 15
44 45 45 46 46 46 45 45 44 44 43 40 39 42 47 48 47 49 51 52 53 53 53 54 53 53 53 52 51 50 50 50 50 51 55 60 65 66 66 66 65 64 63 62 61 59 58 58 56 55 54 53 52 51 49 48 47 45 44 42 40 38 36 33 33 33 32 32 29 24 22 25 27 25 22 22 21 19 18 18 18 16 15 14 13 13 13 14
45 46 46 47 48 48 48 47 47 47 47 46 44 42 44 49 50 49 51 54 55 55 56 56 56 56 55 55 54 53 53 52 52 53 55 59 64 67 68 68 67 66 64 64 62 61 60 59 58 56 56 55 54 53 51 50 49 47 45 44 42 41 39 37 34 33 33 33 33 30 25 24 25 23 23 23 22 20 20 20 20 19 18 16 15 14 14 14
46 47 48 49 50 50 50 49 49 50 50 50 49 48 45 47 51 53 52 54 56 57 58 58 58 58 58 58 57 56 56 55 54 55 56 59 63 67 69 69 68 67 66 65 64 62 60 59 58 58 56 56 56 55 53 52 50 49 47 45 44 43 42 40 37 35 34 33 34 34 31 28 26 24 23 24 23 22 21 21 22 21 19 18 16 15 14 14
47 49 50 51 52 52 52 52 52 52 53 52 52 52 51 49 51 55 56 55 57 59 60 60 61 61 60 60 60 59 59 58 57 57 58 59 62 67 69 70 69 69 68 67 65 63 61 60 60 59 58 58 58 57 55 53 51 50 48 47 46 45 43 42 41 38 36 34 33 32 31 30 30 28 27 27 26 25 24 24 24 22 21 19 17 16 15 15
46 48 50 52 54 55 55 55 56 55 55 54 54 54 55 54 52 54 58 59 59 60 61 62 63 63 63 63 62 62 62 61 60 60 60 61 63 65 69 71 70 70 69 68 66 64 63 62 62 61 59 59 59 58 56 55 53 51 49 48 47 46 45 44 43 41 39 37 35 32 31 31 31 31 31 31 29 27 27 26 25 23 22 20 19 18 16 15
43 46 48 51 53 56 57 58 59 59 58 56 56 56 57 58 56 55 59 62 62 62 63 64 65 66 66 65 65 65 65 64 63 62 62 62 63 65 68 71 72 72 71 70 68 67 66 65 63 62 61 59 60 60 58 56 55 53 51 49 48 47 46 46 45 43 42 40 37 34 31 30 32 33 33 32 30 29 27 26 25 24 22 21 20 19 17 16
41 43 45 48 51 54 57 59 61 61 60 60 60 60 60 61 61 59 59 63 65 65 65 66 67 68 68 67 68 68 68 67 66 65 64 64 64 65 67 70 72 73 72 72 70 70 69 67 65 64 62 60 61 62 60 58 56 54 52 50 49 48 48 47 46 45 44 42 40 37 32 31 33 35 34 33 31 29 28 27 26 24 23 22 21 20 18 17
40 40 42 45 48 51 54 57 60 61 62 63 63 64 64 64 64 63 61 63 67 69 69 68 69 70 70 70 71 71 70 70 68 67 66 66 66 66 68 69 72 73 74 73 72 72 71 69 67 65 63 62 63 63 61 60 58 56 54 52 50 49 49 48 47 46 45 43 41 40 37 36 36 36 35 33 32 30 29 27 27 26 25 24 22 21 20 18
38 38 39 42 44 47 49 52 56 59 60 62 64 65 66 66 67 66 65 65 67 70 71 71 71 72 72 73 73 73 73 72 71 70 69 69 68 68 69 70 71 73 74 74 74 74 73 72 70 67 66 64 63 63 63 62 59 57 56 54 52 51 50 49 48 47 46 45 43 42 40 39 40 39 37 35 33 31 30 29 29 28 27 25 24 22 21 20
38 36 36 38 41 43 46 49 52 54 56 58 60 63 65 67 68 68 68 67 68 71 73 73 74 74 74 75 76 75 74 74 73 73 72 72 71 71 71 71 72 74 75 75 75 75 74 74 72 71 68 66 65 65 65 63 61 59 58 57 55 53 52 50 49 48 47 46 45 45 43 40 40 41 39 37 36 34 32 31 30 30 29 27 25 24 23 21
39 36 34 35 37 40 43 46 49 51 53 55 57 59 61 64 67 69 69 69 70 71 74 75 76 76 76 77 78 77 76 76 76 76 75 74 74 73 72 73 73 74 75 75 75 75 75 75 74 73 70 68 68 67 66 65 64 62 60 59 57 55 54 52 51 49 48 48 47 47 46 43 42 42 42 40 38 36 35 33 32 31 30 29 27 26 25 23
42 38 34 33 34 37 40 43 46 49 51 54 56 59 61 63 66 69 70 71 71 72 74 76 78 79 78 78 79 79 79 79 79 79 78 77 76 75 75 74 75 75 76 76 75 75 76 76 75 73 73 72 72 71 69 68 66 63 61 61 59 57 55 54 52 50 50 49 48 48 47 45 44 43 44 43 40 39 37 35 33 32 31 31 29 28 26 24
44 40 36 34 34 36 38 41 44 48 51 54 56 60 62 65 66 68 71 72 73 73 75 77 79 80 80 80 81 81 82 82 82 81 80 79 78 78 77 76 76 77 77 77 76 76 77 77 75 76 77 76 75 73 70 69 68 65 63 62 60 59 58 56 54 52 52 50 49 48 47 47 46 43 44 45 43 41 39 37 36 34 33 33 32 30 28 25
47 41 37 35 35 36 38 40 43 46 50 54 58 61 65 67 69 70 71 73 74 75 76 78 79 80 81 82 83 83 83 84 84 84 83 82 81 80 80 79 78 78 78 78 77 77 77 76 77 79 78 77 75 73 71 71 69 67 65 63 63 61 59 58 56 55 54 52 50 50 49 48 47 46 46 45 44 42 40 39 38 37 36 34 33 31 29 27
49 43 39 36 36 37 39 42 46 49 52 56 59 63 67 70 72 73 74 75 76 77 77 78 79 80 82 84 84 85 85 86 86 86 85 84 83 83 82 81 80 79 79 79 79 78 77 77 79 79 78 77 76 74 73 72 71 69 67 65 64 62 62 61 60 58 56 54 53 52 51 49 49 49 48 45 44 43 42 40 40 40 38 35 33 32 30 29
50 45 40 39 39 40 43 46 49 52 55 58 60 63 67 71 74 76 77 78 78 78 79 79 79 79 81 84 86 86 87 87 87 88 87 87 86 85 84 84 83 81 80 80 80 80 79 80 80 79 79 78 76 75 74 73 73 72 70 69 66 65 65 63 61 60 58 56 55 54 53 52 51 51 48 46 46 45 44 43 43 42 38 34 33 33 32 31
51 46 43 42 42 44 46 49 52 54 55 57 58 61 64 68 72 75 78 80 80 80 81 81 80 80 81 84 86 88 88 88 89 89 90 89 88 88 87 86 85 83 82 82 82 82 82 82 81 80 80 79 77 77 76 75 75 74 73 72 69 67 66 64 63 62 60 58 58 56 56 55 53 51 49 48 47 47 47 46 44 41 39 37 35 34 34 32
52 48 45 45 46 47 50 51 52 52 53 54 55 56 59 63 68 73 76 79 81 82 82 82 82 82 82 84 87 89 89 90 90 90 91 91 90 90 90 88 87 86 85 84 83 84 84 82 82 83 81 79 78 78 77 77 76 75 75 74 71 70 68 66 66 65 62 61 60 58 58 56 54 52 50 50 50 50 48 46 43 41 40 39 37 36 35 33
53 49 47 48 48 50 51 51 49 47 47 48 49 52 55 58 63 68 73 77 80 82 83 83 83 84 85 86 87 88 90 91 91 91 92 92 92 92 91 90 89 87 86 85 85 85 84 84 84 83 81 80 79 78 78 78 77 76 77 76 74 72 69 69 69 67 65 63 62 61 59 57 55 54 52 52 52 51 49 46 45 44 42 40 38 37 36 34
53 50 49 50 50 51 51 49 45 42 40 41 43 46 49 53 57 63 69 75 78 80 83 85 85 85 86 86 87 88 90 91 91 92 92 92 92 93 92 92 90 89 88 88 87 85 85 86 86 84 82 81 79 78 78 78 78 77 77 77 76 73 71 70 70 69 66 64 64 63 61 59 58 57 56 54 53 52 50 48 47 45 43 41 40 39 37 36
54 51 51 51 53 52 50 46 41 37 34 33 35 38 41 46 51 57 64 71 75 78 82 85 86 86 86 87 87 88 89 90 91 92 92 92 93 94 94 94 92 91 90 90 89 88 87 87 87 86 84 82 81 80 79 78 78 77 78 79 77 74 72 71 71 70 68 67 67 65 63 62 61 60 58 57 55 54 52 51 49 47 45 43 42 41 39 38
54 52 52 53 55 53 48 44 39 33 29 28 28 30 34 38 44 50 58 65 71 76 80 83 86 87 86 86 87 87 87 88 90 91 92 92 93 94 94 94 94 93 92 92 91 89 89 89 88 87 86 84 83 83 81 80 78 78 79 79 77 76 73 72 71 71 69 69 68 66 65 64 63 61 60 59 58 56 54 52 51 48 47 46 44 43 42 41
54 53 54 55 57 54 49 43 37 30 26 24 23 25 28 32 37 44 52 58 65 72 78 82 85 86 86 86 85 86 87 88 89 91 92 92 93 94 94 95 95 93 93 93 92 90 90 90 89 88 87 86 84 84 83 82 80 79 79 78 78 77 74 72 71 71 70 70 69 68 67 66 64 63 61 60 59 58 56 54 52 51 50 48 46 45 43 42
55 55 56 58 58 56 51 44 36 29 23 21 20 21 24 28 33 39 45 51 58 67 75 81 84 85 86 86 85 85 86 88 89 90 91 92 93 93 94 94 95 94 94 94 92 91 91 92 90 88 87 87 86 85 84 82 81 80 79 78 78 77 75 73 71 70 70 70 69 68 67 66 65 63 62 62 60 59 58 56 54 53 51 49 48 46 44 43
55 56 57 59 60 57 52 44 36 28 23 19 18 18 20 24 29 34 38 45 52 60 69 78 82 85 86 87 87 86 86 88 89 89 90 92 93 93 93 93 93 93 94 95 94 93 94 93 91 90 88 88 88 88 86 84 83 82 80 79 78 78 76 73 70 69 69 70 69 67 67 67 65 64 63 62 61 60 59 57 56 54 52 50 48 46 44 44
55 56 58 60 61 59 54 45 36 28 23 19 17 16 17 20 25 30 34 40 47 55 63 72 80 85 87 88 88 88 88 88 89 90 90 92 93 93 93 93 93 93 94 95 95 95 96 94 92 91 90 89 89 89 88 86 85 83 81 80 79 78 76 73 70 68 69 68 66 65 66 65 63 63 63 62 61 60 59 58 56 55 53 51 49 46 45 44
55 56 59 61 62 61 55 46 36 29 23 18 16 14 14 17 22 26 32 37 43 50 57 66 74 82 87 89 89 89 89 89 89 90 91 92 93 93 94 93 94 94 94 95 96 96 97 96 95 93 91 90 90 89 89 88 87 85 83 82 80 78 77 75 71 69 69 67 65 65 65 63 62 62 62 61 60 59 58 58 56 55 53 51 49 47 46 45
55 56 59 61 62 61 56 47 37 30 24 19 15 13 12 14 18 23 28 34 39 45 52 59 68 76 84 89 90 90 91 90 90 91 92 92 92 93 94 94 94 94 95 96 97 97 98 98 96 94 92 91 91 90 90 90 90 89 87 84 82 80 79 77 75 73 71 69 68 67 65 63 62 62 61 60 59 57 57 57 56 55 53 51 49 48 47 46
54 56 59 62 63 62 57 48 39 32 26 20 15 11 10 11 15 19 25 30 36 42 48 54 61 70 78 86 90 91 92 92 91 91 92 92 93 93 94 94 94 95 95 96 97 97 98 99 97 95 94 93 92 92 91 92 92 91 88 86 84 82 80 78 76 74 74 73 72 70 66 64 64 63 62 61 59 58 57 56 56 55 53 52 50 49 49 47
53 55 58 62 64 63 58 50 41 33 28 22 16 11 8 8 11 16 21 27 33 39 44 49 56 63 72 80 88 92 93 93 92 92 92 92 93 94 94 94 95 96 96 96 96 97 98 98 97 97 96 95 94 94 93 94 92 91 90 89 87 84 82 80 78 77 77 76 75 72 69 68 67 65 63 61 60 59 58 57 56 55 54 53 51 51 50 48
53 55 58 61 65 65 60 52 43 36 30 23 17 12 8 6 8 13 18 23 30 36 40 45 51 57 65 73 83 90 93 94 94 93 92 92 92 93 94 95 96 96 96 96 97 97 97 97 97 98 97 97 97 96 96 95 93 92 92 90 89 88 86 84 82 80 78 77 76 73 71 71 70 68 66 64 62 60 59 58 57 56 56 54 53 52 51 49
52 54 57 61 64 66 62 53 44 37 31 25 17 12 8 5 5 10 15 20 27 32 38 43 47 52 59 66 75 84 91 94 95 95 94 93 93 93 93 95 96 96 97 97 97 97 97 97 98 98 98 99 100 99 97 95 94 94 93 91 91 91 89 87 85 82 81 80 77 74 73 72 70 68 67 66 64 63 61 60 58 58 57 56 54 53 52 49
50 52 56 59 63 65 63 55 46 38 31 25 19 12 8 5 4 7 12 18 24 29 34 39 43 48 54 60 67 75 84 91 94 96 96 95 94 94 93 94 95 97 97 98 98 98 98 98 98 99 100 101 101 100 98 96 96 95 93 92 93 92 90 89 87 85 85 83 79 77 76 73 69 68 67 66 64 63 63 61 60 60 59 57 56 54 52 49
49 51 54 58 61 64 63 56 48 39 32 26 20 14 9 4 2 5 10 16 21 26 31 35 39 43 48 54 61 68 76 84 91 95 96 96 95 95 95 94 95 96 97 98 99 99 99 99 99 99 100 100 101 100 99 98 98 96 95 93 92 92 91 90 89 88 88 85 81 80 78 73 71 70 68 66 65 64 63 62 61 61 59 58 57 55 53 50
47 49 53 56 59 62 62 56 48 41 34 28 22 15 10 6 2 4 8 13 18 23 28 32 36 40 44 48 54 61 68 76 84 90 95 96 96 96 95 95 95 95 96 98 99 100 100 100 99 99 99 99 100 101 100 100 100 99 97 95 94 93 92 92 91 91 90 88 84 83 80 76 74 73 71 70 68 66 65 63 62 62 60 59 58 56 55 52
46 48 52 55 58 61 62 58 49 42 36 30 24 18 12 7 3 3 7 11 16 21 25 29 33 38 41 45 48 53 60 67 75 82 89 94 96 96 96 95 95 95 95 97 98 99 100 100 100 99 99 99 100 101 101 101 101 101 99 97 96 95 93 93 93 92 92 90 88 87 84 80 78 76 75 74 72 70 69 66 65 64 63 61 60 58 56 54
45 47 51 54 57 60 61 58 50 42 36 31 27 21 14 8 4 2 5 9 14 18 22 26 30 34 38 42 46 49 53 59 66 73 80 87 92 95 96 96 95 95 96 96 97 98 99 100 100 99 99 99 100 101 102 102 102 102 101 99 98 96 94 94 93 93 94 93 91 90 87 83 81 80 78 77 75 73 72 69 68 67 66 64 62 61 59 56
44 46 49 53 55 58 60 58 51 43 36 31 28 25 18 11 5 2 4 8 12 16 20 24 27 31 35 39 43 47 50 54 59 65 71 78 84 89 93 95 96 96 96 96 95 96 98 99 99 99 99 100 100 101 101 101 101 102 101 101 99 97 96 95 94 94 94 94 94 94 90 86 85 83 82 80 78 76 74 72 70 69 68 66 65 63 61 59
42 45 48 52 54 57 59 59 53 45 38 32 29 26 22 16 8 3 3 7 10 14 19 22 25 28 32 36 39 44 48 51 55 59 64 70 76 81 86 91 94 95 96 96 95 95 97 98 98 99 100 100 100 100 99 99 100 101 102 102 101 99 98 97 96 95 95 95 95 95 91 89 89 88 86 84 82 79 77 75 73 71 70 69 67 66 64 62
41 43 47 50 53 56 59 59 55 47 40 35 31 27 24 19 13 6 2 5 9 12 16 20 24 26 29 33 37 40 44 48 52 55 59 63 69 74 78 83 88 91 93 95 95 95 96 97 98 99 99 99 99 99 98 99 100 100 101 102 103 102 100 99 98 96 95 95 96 94 93 92 92 90 88 87 85 83 81 78 76 75 73 71 70 68 66 64
40 42 45 49 52 55 57 58 55 49 42 36 32 29 26 22 17 11 5 2 7 11 14 18 22 25 28 30 34 38 41 45 49 52 55 59 63 68 72 76 80 84 87 90 93 94 95 96 97 98 98 99 99 99 99 99 99 99 100 101 103 103 102 101 100 97 96 96 95 94 94 94 93 92 91 89 88 86 84 82 80 78 77 75 73 71 69 67
39 41 44 47 51 53 55 57 55 50 44 38 33 31 29 26 21 15 10 4 4 8 12 16 20 23 26 29 32 35 38 42 45 49 52 55 59 62 66 70 74 78 81 84 87 90 93 94 96 96 97 98 99 100 100 100 100 99 99 100 102 103 104 103 102 100 98 97 96 95 96 95 94 94 93 92 91 89 87 85 83 82 80 78 76 74 72 70
38 40 42 45 49 51 53 55 54 50 45 39 35 32 31 28 24 19 14 9 5 4 9 14 18 21 25 28 31 34 36 39 43 46 49 52 55 58 61 65 69 73 76 79 82 85 88 91 93 95 96 97 98 99 100 100 100 100 99 99 101 103 104 104 103 102 101 99 97 97 97 96 95 95 95 94 93 92 91 89 87 85 83 82 80 77 75 73
36 39 41 44 47 50 52 53 53 50 45 41 36 33 31 29 27 23 18 13 9 5 6 10 15 19 23 26 29 32 35 38 40 43 46 49 52 55 58 61 64 67 71 75 78 81 84 87 90 92 95 96 97 98 100 100 101 101 100 99 100 102 104 105 104 104 103 101 100 99 98 97 96 96 96 95 95 94 93 92 90 89 87 85 83 81 79 77
36 38 40 42 45 48 50 52 51 48 44 40 37 34 31 30 29 26 21 16 12 8 6 7 10 16 20 24 28 31 34 37 39 42 45 47 50 53 56 58 61 64 67 70 74 77 81 84 86 89 92 94 96 98 99 100 101 101 100 99 99 100 102 104 105 105 104 103 102 101 99 97 97 97 97 96 96 95 95 94 93 92 90 89 87 85 83 81
Wind_Direction
277 276 274 272 269 267 264 261 258 255 253 251 250 249 247 246 244 241 239 236 235 234 231 230 229 227 225 227 225 219 215 211 206 203 201 201 202 202 202 202 202 202 202 202 201 201 201 201 201 201 201 200 200 200 201 201 200 198 197 196 197 197 193 188 181 180 183 176 169 171 186 203 203 218 241 255 266 271 272 283 317 355 13 24 27 25 21 17
275 274 273 273 272 271 269 265 262 258 254 251 249 248 246 245 243 242 239 236 234 233 232 229 227 227 224 224 225 220 214 211 208 205 203 203 203 204 203 202 203 203 203 203 202 202 202 203 203 204 203 203 202 202 203 203 203 201 198 198 197 197 196 190 180 179 182 171 167 181 192 194 206 232 242 250 258 266 265 271 309 348 13 30 33 28 19 14
272 270 268 267 268 269 269 269 266 262 257 253 249 247 245 244 243 241 239 237 234 232 231 229 226 225 224 222 223 221 215 211 209 207 205 205 205 205 205 203 204 204 204 204 203 203 204 203 204 204 204 203 203 204 204 204 205 204 200 199 198 197 197 192 183 179 183 177 172 185 194 190 203 231 234 240 245 253 270 275 290 323 360 24 30 24 14 9
277 274 270 266 264 263 264 265 266 265 261 256 251 247 245 243 241 240 238 237 235 232 230 229 227 224 224 222 220 221 217 211 210 209 207 207 207 207 206 205 205 205 205 205 204 204 205 205 204 205 206 205 205 206 206 207 207 206 203 201 199 197 197 195 188 183 182 182 182 189 194 194 201 220 227 235 245 256 274 273 277 302 324 1 15 12 6 5
282 280 276 272 268 264 263 261 261 262 262 259 255 249 245 242 241 239 238 236 234 233 230 228 227 225 223 222 220 219 217 213 211 210 209 209 209 209 209 207 206 206 206 206 206 205 206 206 206 206 207 207 207 208 209 210 209 208 206 203 201 198 197 196 192 189 185 182 187 195 197 197 197 205 218 229 243 251 261 263 269 294 307 329 354 359 357 360
284 282 280 277 273 269 266 263 261 259 259 259 257 252 247 243 240 239 237 235 233 232 231 228 226 225 223 221 220 219 217 215 213 210 209 210 210 211 211 209 208 208 208 208 207 206 207 207 207 207 208 208 208 209 210 211 210 209 208 205 203 200 197 197 194 191 190 185 187 197 201 201 196 199 212 224 234 240 250 256 261 285 304 317 335 342 346 353
284 282 280 278 275 272 268 265 262 259 257 256 256 254 250 244 240 238 237 235 233 231 231 229 226 225 223 222 220 218 217 216 214 211 210 210 211 212 213 212 210 209 209 209 208 208 208 208 208 208 209 210 210 211 211 211 212 210 209 207 205 203 199 198 197 193 192 189 191 199 201 203 204 207 217 227 234 239 246 251 256 276 295 309 320 327 336 346
283 281 279 277 275 272 269 266 263 260 257 255 254 253 251 247 242 239 237 235 233 231 230 229 227 225 223 222 220 218 217 217 215 213 211 211 211 213 214 214 212 211 211 210 209 209 209 210 210 210 210 212 212 212 212 212 213 211 210 209 207 205 203 201 199 197 195 192 197 206 201 201 209 214 222 231 235 238 244 249 255 269 286 299 309 317 327 339
282 280 278 275 273 270 268 265 262 260 257 255 253 252 250 247 244 240 237 235 233 230 229 228 227 225 223 222 221 218 217 216 216 215 212 212 212 212 214 215 215 213 212 212 211 210 210 211 211 212 212 213 214 214 214 214 214 213 211 210 208 207 206 205 202 200 200 197 200 209 210 208 211 213 223 233 236 239 243 248 256 266 280 291 300 309 319 332
280 277 275 273 271 268 266 263 261 258 256 253 252 252 251 247 243 240 237 235 233 231 228 227 227 226 224 222 221 220 217 215 215 216 214 213 212 212 214 216 216 215 214 214 213 211 211 212 213 213 214 215 216 215 215 216 215 214 213 212 210 209 209 208 207 205 205 204 204 210 215 217 217 214 222 231 233 237 243 248 257 266 275 284 291 300 310 323
281 276 272 269 267 266 264 261 259 256 254 252 250 250 251 248 242 239 237 234 233 231 228 227 226 225 224 222 220 220 219 216 214 215 216 215 213 213 214 215 217 217 216 215 214 213 212 213 214 214 215 216 217 216 216 217 216 216 215 214 213 211 211 211 211 210 209 210 210 213 217 221 222 221 226 234 234 238 244 250 257 263 269 277 284 292 302 314
287 280 273 269 265 263 261 259 257 255 253 251 249 248 248 249 244 238 235 234 232 231 229 227 225 224 224 223 221 220 219 217 215 214 216 216 214 213 213 215 216 218 217 216 216 216 214 214 215 215 216 217 217 217 217 217 217 218 217 216 215 214 213 213 214 214 213 214 215 217 221 225 228 227 228 235 237 240 245 249 255 259 265 272 279 287 295 305
293 285 278 272 267 263 260 258 256 254 252 250 248 247 246 247 246 240 233 231 231 230 229 227 225 224 223 222 222 220 219 218 216 214 215 216 216 214 213 214 216 217 218 217 217 217 217 216 216 217 217 217 218 218 218 218 218 219 219 218 218 217 216 216 216 217 217 217 217 220 227 230 232 233 232 235 237 239 244 248 253 258 263 269 275 282 289 299
297 289 281 275 270 265 262 259 257 254 252 250 248 247 246 245 246 242 234 229 228 229 228 226 225 224 222 221 221 221 219 218 217 215 215 215 216 216 214 214 215 217 218 218 218 218 219 218 217 218 218 218 219 219 218 218 219 219 220 220 220 220 219 218 218 219 219 219 218 220 227 230 232 235 236 237 238 240 244 248 253 258 261 266 271 277 284 293
301 291 283 277 272 267 264 261 258 256 253 252 250 248 247 245 244 243 238 230 226 226 227 226 224 223 222 221 220 220 220 218 217 216 215 215 215 216 216 215 215 216 217 218 219 219 220 219 219 219 219 220 220 220 219 219 219 219 220 221 221 222 222 221 221 221 221 221 220 220 226 232 233 236 238 238 240 241 244 248 251 255 258 262 267 274 281 288
303 293 284 278 273 269 265 262 259 257 255 254 252 250 249 247 245 243 240 233 227 225 225 225 224 223 222 221 220 219 219 219 217 216 216 215 215 215 216 216 215 216 217 217 218 219 220 220 220 220 221 222 221 221 220 219 219 219 219 220 221 222 223 223 224 224 223 223 222 222 226 231 234 238 240 239 241 243 243 246 249 252 256 260 265 271 277 283
306 295 285 277 272 269 266 263 260 258 256 254 253 252 250 249 246 244 241 237 231 225 224 223 223 222 221 220 220 219 219 219 218 217 216 216 215 215 215 216 216 216 216 217 218 219 220 220 221 221 221 222 223 222 222 221 220 219 220 220 221 222 223 224 224 225 225 225 225 224 225 228 232 237 241 241 241 242 243 245 247 251 254 258 263 267 272 277
310 299 286 276 270 266 263 261 260 258 256 254 252 251 249 248 247 245 242 239 235 229 225 223 222 221 220 220 219 218 218 218 218 217 216 216 216 215 215 215 216 216 216 216 217 218 219 220 221 221 222 223 223 223 222 222 220 220 220 221 221 223 224 224 225 226 226 226 226 227 227 229 231 235 240 241 241 242 244 245 247 250 254 257 259 263 267 271
315 306 293 281 272 266 261 258 257 256 254 253 252 250 248 246 245 245 243 240 237 233 228 224 222 220 219 219 218 218 217 217 218 218 216 216 216 216 215 215 215 216 216 216 217 218 219 220 220 221 222 223 223 223 222 222 221 220 221 222 222 223 225 225 225 226 227 227 228 228 229 230 232 234 238 241 242 243 244 246 247 249 252 254 256 259 263 268
320 311 300 288 278 271 265 261 257 255 252 251 250 249 248 246 243 242 241 240 238 235 231 227 223 220 219 218 217 217 217 217 217 217 217 216 216 216 216 216 215 215 216 216 216 217 218 219 219 220 221 222 223 223 223 223 223 221 221 222 222 224 225 225 226 226 227 228 229 229 230 231 232 234 237 239 242 243 244 246 247 248 250 252 255 258 262 267
323 315 305 294 285 279 274 271 267 262 258 253 249 247 245 244 243 240 239 238 237 235 233 229 225 221 219 218 217 216 216 216 217 217 217 216 216 216 216 216 216 215 216 216 216 217 218 219 219 220 221 222 224 224 224 224 224 223 222 223 223 224 225 225 226 226 227 228 229 230 231 232 233 235 238 240 242 244 245 246 248 249 249 252 256 259 263 268
326 319 310 301 295 290 286 282 277 271 265 259 254 249 245 242 241 239 237 236 235 234 233 231 227 223 221 219 217 216 215 216 216 216 216 216 216 216 216 216 216 216 215 216 216 216 217 218 219 220 221 222 223 224 225 225 225 225 224 224 224 225 226 226 225 226 227 228 229 230 231 232 233 235 237 239 241 243 244 245 247 249 250 254 259 261 264 268
328 322 315 309 304 300 295 290 284 277 270 264 259 253 248 244 241 239 237 235 233 232 232 231 228 225 223 221 218 216 215 215 215 215 216 215 215 216 216 216 216 216 216 216 216 216 216 217 219 220 220 221 222 223 224 225 226 226 226 226 226 226 227 227 227 227 228 228 229 230 231 232 233 235 237 238 241 242 243 243 245 248 251 253 257 261 265 267
330 325 319 315 310 306 301 295 289 283 276 269 262 256 250 246 243 240 238 236 234 231 230 230 228 226 224 222 220 217 215 214 214 215 215 215 215 215 216 216 216 216 216 216 216 216 216 217 218 219 220 220 221 222 223 224 225 226 227 227 226 227 229 229 228 228 228 229 230 230 231 232 234 236 237 239 240 242 243 244 246 248 250 250 252 258 263 266
332 327 322 318 315 311 305 299 293 287 280 273 266 258 252 246 242 239 237 236 234 232 230 228 227 226 224 222 221 218 216 214 214 214 215 215 215 215 215 216 216 216 216 216 216 216 216 217 218 219 219 220 221 221 222 223 224 226 227 227 227 228 229 229 230 229 229 230 231 232 232 233 234 236 237 239 240 241 244 245 247 249 250 251 253 256 260 264
333 329 324 321 318 315 309 303 297 290 282 273 266 258 252 246 240 237 235 234 232 232 231 228 226 225 223 222 220 219 217 215 214 214 214 214 215 215 215 215 216 216 216 217 217 216 216 217 218 218 219 219 220 221 222 223 223 225 227 227 227 228 228 230 230 230 230 231 232 233 234 234 235 235 236 238 240 241 243 244 246 247 248 251 253 255 258 262
334 330 327 324 322 319 315 309 303 295 284 272 264 256 249 244 239 235 232 231 230 229 229 228 226 224 223 222 220 219 218 216 214 214 214 214 215 215 215 215 215 216 217 217 217 217 217 218 218 218 218 218 219 220 222 222 223 224 226 227 227 227 228 230 231 231 231 232 234 234 235 236 236 236 236 238 240 241 242 243 244 246 248 250 252 254 257 259
335 332 329 328 326 324 321 316 310 301 288 274 263 255 247 241 237 233 230 228 228 227 226 227 227 225 223 222 220 219 218 216 216 215 214 214 214 215 215 215 215 215 217 217 217 217 217 218 218 217 217 217 218 219 220 221 222 223 225 226 227 227 227 229 231 231 232 233 234 235 236 236 237 238 238 239 241 242 243 243 245 246 248 250 252 254 256 257
336 333 332 331 330 328 327 324 317 307 295 281 267 256 248 240 235 232 229 227 225 224 224 224 225 225 224 222 221 219 218 217 217 216 215 215 215 215 215 215 215 215 216 217 217 217 217 218 218 218 218 217 217 218 219 220 221 222 223 225 226 226 226 228 230 231 232 233 235 235 236 237 238 239 240 241 242 243 244 244 246 247 248 250 252 254 256 258
337 335 335 336 335 333 334 331 324 314 303 290 275 262 250 241 234 230 228 225 223 222 222 222 223 224 224 223 221 220 219 218 217 216 216 215 215 215 215 215 215 215 216 217 217 218 218 218 218 218 218 218 218 219 219 219 220 221 222 224 225 226 226 227 229 230 232 233 234 235 236 237 239 240 240 241 242 243 244 245 246 247 249 250 252 254 256 258
339 338 338 339 339 338 339 337 330 322 313 299 283 268 253 243 236 230 227 224 222 220 220 220 221 222 223 223 222 220 219 219 217 217 216 216 216 216 215 215 215 215 216 217 217 218 219 219 218 218 218 218 218 219 219 219 220 221 222 223 225 226 226 227 228 230 231 232 234 235 236 237 238 240 241 242 243 243 244 245 246 247 249 250 251 253 255 257
340 340 341 342 342 342 342 341 336 330 323 310 292 273 257 245 237 231 226 223 220 218 217 218 219 220 221 222 221 220 219 219 218 218 217 217 217 216 216 216 216 216 217 217 216 218 219 219 218 218 218 218 219 219 219 219 220 220 221 223 224 225 226 227 227 229 230 232 233 234 235 237 238 239 240 241 242 243 244 245 246 247 248 250 251 252 254 256
342 342 343 345 346 345 345 344 341 337 332 320 302 280 261 248 238 231 225 222 219 217 215 216 216 217 218 219 220 220 219 218 218 218 218 217 217 217 216 216 216 216 217 217 216 217 219 219 218 218 218 218 219 219 219 219 219 220 220 222 223 224 225 226 226 227 229 230 232 233 234 235 236 237 239 240 242 243 244 245 246 247 248 249 250 251 252 253
343 343 345 347 349 348 347 347 346 344 339 329 313 291 268 251 239 230 224 221 218 216 214 214 214 215 217 218 219 220 219 219 218 218 218 218 217 217 217 217 217 216 217 217 217 217 218 218 218 218 218 219 219 219 219 219 219 220 220 220 221 222 223 224 224 224 226 227 228 230 231 232 234 236 238 239 240 241 243 244 245 246 247 248 249 250 251 252
345 345 346 349 351 350 350 349 349 349 345 337 323 301 277 255 238 228 222 219 217 215 213 212 213 213 215 216 217 219 219 219 218 218 218 218 218 217 217 218 218 217 217 217 217 217 218 218 218 218 219 219 219 219 219 219 219 219 219 220 220 221 222 223 223 223 224 225 225 227 229 230 232 234 235 236 237 239 241 243 244 245 246 247 248 249 250 251
346 346 347 351 353 353 352 351 352 353 350 344 332 311 285 259 237 225 220 217 215 214 212 211 211 212 213 215 216 217 218 219 219 218 218 218 218 218 218 218 218 218 218 218 217 218 218 218 218 218 219 219 220 219 219 220 220 220 220 220 220 221 221 223 223 224 224 224 225 226 227 228 229 231 233 234 235 237 239 241 243 244 245 246 247 248 249 250
346 347 349 352 354 354 354 353 354 355 354 349 340 325 299 264 237 222 217 214 213 212 211 209 209 211 212 213 215 216 218 219 219 219 219 218 218 218 218 218 218 218 218 218 218 218 218 218 218 218 218 219 220 220 220 220 220 220 219 220 220 220 221 221 222 223 225 226 226 227 227 227 229 230 232 233 234 236 237 239 241 242 243 245 245 246 248 249
346 348 351 354 355 355 355 355 356 357 355 352 347 337 318 278 240 222 213 211 211 209 208 208 208 209 210 212 213 215 216 218 219 220 220 219 219 219 219 218 218 218 218 218 218 218 218 218 219 218 218 219 219 220 220 220 220 220 220 219 220 220 220 221 221 222 224 226 227 228 228 229 230 231 232 233 234 235 236 236 238 240 241 242 243 245 246 247
347 348 352 355 356 357 356 355 357 358 356 353 351 346 331 301 249 223 213 209 208 207 206 206 206 207 209 211 212 214 215 217 218 219 220 220 220 220 220 219 219 219 218 218 219 218 218 218 219 218 218 219 219 220 220 221 220 221 220 219 220 220 220 221 221 222 223 225 226 227 228 229 231 232 233 234 234 235 235 235 236 238 239 240 242 243 244 245
346 349 353 356 357 358 357 356 356 358 358 355 352 352 346 324 267 227 214 208 206 206 206 206 206 207 208 209 211 213 215 216 217 218 219 220 220 221 221 220 220 219 219 219 219 219 218 219 219 219 219 219 219 219 220 221 221 221 221 220 220 221 220 221 222 222 224 225 225 226 227 228 229 231 232 234 235 235 236 236 236 237 238 239 240 241 242 243
346 349 354 357 358 358 358 358 357 356 358 359 356 354 354 343 284 234 217 210 207 206 205 205 205 207 208 209 210 211 213 215 217 218 219 220 220 220 221 221 221 221 220 219 219 219 219 219 219 219 219 219 220 219 219 220 221 222 221 221 221 221 221 221 222 222 224 225 224 226 227 227 227 229 230 231 233 234 235 236 236 237 237 238 238 239 240 240
347 350 354 357 358 359 359 359 358 356 357 1 2 358 356 352 306 234 221 213 209 207 206 205 205 206 208 210 211 212 212 214 215 217 219 220 221 221 221 222 222 222 221 221 220 220 220 219 219 219 220 220 220 220 219 220 221 222 221 221 221 221 220 221 221 222 224 225 224 225 225 225 226 227 228 229 230 231 232 233 234 236 236 236 237 237 238 238
347 351 354 357 358 359 0 0 360 358 356 358 3 4 1 354 332 240 220 214 212 210 208 207 207 206 207 208 210 212 213 214 215 216 218 219 221 221 222 222 222 223 222 222 221 221 221 220 220 220 220 220 220 220 219 220 221 221 221 221 221 221 220 220 221 222 224 225 225 225 225 224 225 226 227 229 230 231 231 232 233 234 235 235 235 236 236 236
347 351 355 357 358 359 1 2 2 1 359 357 0 5 6 1 344 271 224 215 214 213 211 209 209 209 209 208 208 210 212 214 215 216 217 219 220 221 222 223 223 223 223 223 223 222 222 222 221 221 221 220 220 221 220 220 221 221 222 222 222 221 221 221 221 221 223 224 224 225 225 224 225 226 227 228 229 230 232 232 233 234 235 235 235 235 235 235
347 351 354 356 358 359 1 2 3 3 2 1 1 3 6 6 358 308 235 219 215 213 214 213 211 210 210 210 209 209 210 212 214 215 216 217 219 221 222 223 224 224 225 224 224 223 223 223 222 222 221 221 221 221 221 220 221 221 222 222 222 222 222 221 221 221 222 223 224 225 225 224 225 226 226 227 228 230 231 232 233 235 236 236 236 236 235 234
347 351 354 356 357 359 0 2 4 5 4 5 4 4 4 5 4 346 243 225 219 216 215 215 215 213 212 211 211 210 210 210 212 213 215 216 217 218 220 222 224 225 225 225 225 225 224 224 223 223 222 222 222 222 221 221 221 221 222 222 223 222 222 222 222 221 222 223 224 225 225 225 225 226 226 227 228 229 230 230 231 233 235 236 236 237 236 235
347 351 354 356 357 358 360 2 3 5 6 7 7 7 6 5 4 360 303 226 221 220 218 217 216 215 215 213 212 211 211 211 211 212 213 214 216 216 217 219 222 224 225 226 226 226 226 225 224 224 223 223 223 223 222 222 222 221 222 222 223 223 222 222 222 222 222 223 224 225 225 225 226 226 227 227 228 229 230 230 231 232 234 235 236 237 237 237
347 350 353 355 356 357 359 1 2 5 7 9 10 10 9 7 5 1 349 254 220 219 221 221 219 217 216 216 215 214 213 213 212 212 212 213 214 216 216 216 218 220 222 224 225 226 226 226 226 225 224 224 223 223 223 223 222 222 222 223 223 223 223 223 223 222 222 223 224 224 225 225 226 226 227 228 228 229 229 230 231 232 233 234 235 236 237 237
346 349 351 354 355 356 358 360 1 3 6 9 12 14 13 10 7 3 357 337 242 218 218 222 222 221 219 217 217 217 216 215 214 213 213 213 214 215 215 216 217 217 219 221 223 224 225 226 226 226 225 225 224 224 223 223 223 222 222 223 223 223 224 224 223 223 223 223 223 224 224 225 225 226 226 227 228 228 229 229 230 231 232 234 234 235 236 237
346 348 349 352 354 355 357 359 0 2 4 7 11 15 16 15 11 6 359 349 322 244 221 220 222 223 222 220 219 219 218 218 217 216 215 214 214 215 215 216 216 217 217 218 219 221 223 224 225 226 226 225 225 224 224 224 224 223 223 223 223 223 223 224 224 224 223 223 223 224 224 225 225 225 226 227 228 228 229 229 229 230 231 232 233 234 234 236
346 347 347 350 353 354 356 358 360 1 2 5 9 13 16 18 17 12 5 354 341 313 253 226 221 222 223 223 222 221 220 220 219 219 218 217 216 216 216 216 216 217 218 218 218 219 220 221 223 224 225 225 225 225 225 224 224 224 224 223 224 224 223 224 224 224 224 224 224 224 224 224 225 225 226 227 227 228 229 229 229 229 230 231 232 232 233 234
346 346 346 349 352 353 355 357 358 360 1 4 6 9 13 17 18 17 12 3 349 332 303 260 231 223 222 223 223 223 223 222 221 221 220 219 219 218 217 217 217 217 218 219 219 219 219 220 220 222 223 224 224 225 225 225 225 224 224 224 224 224 224 224 224 224 224 224 224 224 225 225 225 226 226 227 227 228 229 230 230 230 230 231 231 232 232 233